Notices

What's New in latest Release from April 7th, 2021:

- Updated Glossary, including Speed of Maximum Gust, and Total Hourly Precipitation

- Updated national and regional climate services offices contacts and prices information

- Addition of station inventory lists for 1981-2010, 1971-2000, and 1961-1990 Normals.

If you haven't already, please take our survey and provide feedback about our website: https://eccc.sondage-survey.ca/f/LanguageSelection.aspx?s=442ca660-fcf1-47c0-95a9-59707d6fd709

Hourly Data Report for April 13, 2021

CORNER BROOK
NEWFOUNDLAND
Current Station Operator: ECCC - MSC

48°56'00.000" N
57°55'00.000" W
151.80 m
8401298
71973
WKB

Download Data

Hourly Data (April 2021)
Hourly Data Report for April 13, 2021
TIME
LST
Temp Definition
°C
Dew Point Definition
°C
Rel Hum Definition
%
Precip. Amount Definition
mm

Wind Dir Definition
10's deg

Wind Spd Definition
km/h
Visibility Definition
km
Stn Press Definition
kPa
Hmdx Definition


Wind Chill Definition


Weather Definition


00:30 2.4 1.3 93 0.0 7 25   99.58     LegendNANA
01:30 2.4 1.2 92 0.0 6 20   99.57     LegendNANA
02:30 2.1 1.0 92 0.0 7 23   99.57     LegendNANA
03:30 1.9 0.9 93 0.0 7 20   99.59     LegendNANA
04:30 1.8 0.8 93 0.0 5 21   99.61     LegendNANA
05:30 1.6 0.6 93 0.7 7 18   99.67     LegendNANA
06:30 1.5 0.5 93 0.0 6 27   99.66     LegendNANA
07:30 1.8 0.7 93 0.0 6 23   99.70     LegendNANA
08:30 2.3 1.0 91 0.0 6 13   99.72     LegendNANA
09:30 2.6 0.9 89 0.0 6 13   99.72     LegendNANA
10:30 3.2 1.6 89 0.0 5 11   99.72     LegendNANA
11:30 4.2 1.8 85 0.6 5 23   99.67     LegendNANA
12:30 4.6 2.0 83 0.0 5 24   99.70     LegendNANA
13:30 5.0 2.0 81 0.0 4 16   99.76     LegendNANA
14:30 4.6 2.2 84 0.0 4 21   99.74     LegendNANA
15:30 4.0 1.8 86 0.0 5 13   99.72     LegendNANA
16:30 3.4 1.5 87 0.0 6 18   99.76     LegendNANA
17:30 2.8 1.0 88 1.1 6 18   99.80     LegendNANA
18:30 2.2 0.6 89 0.0 5 14   99.80     LegendNANA
19:30 1.6 0.1 90 0.6 5 17   99.83     LegendNANA
20:30 1.3 -0.1 90 0.0 7 11   99.86     LegendNANA
21:30 1.0 -0.3 91 0.0 8 12   99.87     LegendNANA
22:30 0.7 -0.5 92 0.0 8 17   99.89     LegendNANA
23:30 0.6 -0.5 92 0.7 4 9   99.94     LegendNANA

Notes on Data Quality.

Legend

  • E = Estimated
  • M = Missing
  • NA = Not Available*
  • [empty] = Indicates an unobserved value
Date modified: